Regional Weather Roundup
Issued by NWS Upton, NY

Current Version | Previous Version | Graphics & Text | Print | Product List | Glossary Off
Versions: 1 2 3 4 5 6 7 8 9 10 11 12 13 14 15 16 17 18 19 20 21 22 23 24 25 26 27 28 29 30 31 32 33 34 35 36 37 38 39 40 41 42 43 44 45 46 47 48 49 50

000
ASUS41 KOKX 280205
RWROKX

REGIONAL WEATHER ROUNDUP
NATIONAL WEATHER SERVICE NEW YORK NY
900 PM EST TUE JAN 27 2015

NOTE: "FAIR" INDICATES FEW OR NO CLOUDS BELOW 12,000 FEET WITH NO
SIGNIFICANT WEATHER AND/OR OBSTRUCTIONS TO VISIBILITY.

NYZ071-072-176-178-NJZ106-104-280300-
NEW YORK CITY METRO AREA


CITY           SKY/WX    TMP DP  RH WIND       PRES   REMARKS
CENTRAL PARK   CLOUDY    24   9  52 NW12G20   29.79R WCI  13
LAGUARDIA APRT CLOUDY    23  14  68 NW10      29.78R WCI  12
KENNEDY INTL   CLOUDY    24  13  62 N14       29.78R WCI  12
NEWARK/LIBERTY CLOUDY    23  10  57 N16G28    29.80R WCI  10
BRNX BOT. GARD   N/A    N/A N/A N/A W12       29.77F
TETERBORO      CLOUDY    22   9  57 NW14G23   29.78R WCI   9
$$

NYZ177-179-078>081-280300-
LONG ISLAND NEW YORK

CITY           SKY/WX    TMP DP  RH WIND       PRES   REMARKS
FARMINGDALE    CLOUDY    23  11  60 N13G22    29.76R WCI  11
ISLIP          FLURRIES  20  10  65 N26G36    29.72R WCI   2
SHIRLEY        CLOUDY    21  10  62 NW14      29.74R WCI   8
WESTHAMPTON    CLOUDY    20  10  65 N14G26    29.72R WCI   7
MONTAUK POINT    N/A     20  12  71 NW21G30   29.69R WCI   4
$$

NYZ052-065-067-280300-
HUDSON VALLEY

CITY           SKY/WX    TMP DP  RH WIND       PRES   REMARKS
WHITE PLAINS   CLOUDY    17   8  67 NW16G23   29.74R WCI   2
NEWBURGH       CLOUDY    14   9  79 VRB5      29.79R WCI   6
MONTGOMERY     CLOUDY    14   8  77 NE7       29.79R WCI   4
POUGHKEEPSIE   CLOUDY    15   4  61 N13       29.82R WCI   1
ALBANY         FLURRIES  12   2  64 N10       29.88R WCI  -1
$$

NJZ001-105-106-008-010-013-015-019>022-104-280300-
NEW JERSEY

CITY           SKY/WX    TMP DP  RH WIND       PRES   REMARKS
NEWARK/LIBERTY CLOUDY    23  10  57 N16G28    29.80R WCI  10
TETERBORO      CLOUDY    22   9  57 NW14G23   29.78R WCI   9
CALDWELL       CLOUDY    21   6  52 NW9       29.80R WCI  11
MORRISTOWN     CLOUDY    21   7  53 N15G32    29.81R WCI   8
SOMERVILLE     CLOUDY    22   6  50 N15G25    29.81R WCI   9
SUSSEX         CLOUDY    18   2  49 NW8G17    29.80R WCI   8
ANDOVER          N/A     17   3  54 N9G21     29.81R WCI   6
TRENTON        MOCLDY    24   8  50 NW7G22    29.81R WCI  16
MILLVILLE      PTCLDY    30   9  41 NW10      29.81R WCI  21
ATLANTIC CITY  PTCLDY    26  12  55 NW10      29.80R WCI  16
WRIGHTSTOWN    MOCLDY    25  10  52 NW18      29.78R WCI  11
TOMS RIVER     MOCLDY    25  12  58 NW14G20   29.79R WCI  13
BELMAR         CLOUDY    25   9  50 NW16      29.77R WCI  12
$$

PAZ047>061-062-071-280300-
EASTERN PENNSYLVANIA

CITY           SKY/WX    TMP DP  RH WIND       PRES   REMARKS
PHILADELPHIA   MOCLDY    28   8  43 N10       29.84R WCI  19
ALLENTOWN      CLOUDY    18   5  57 N17G26    29.87R WCI   3
SCRANTON       CLOUDY    15   5  64 N12G20    29.88R WCI   2
$$

CTZ002-004>006-009-010-012-RIZ004-006-007-MAZ004-011-015-280300-
SOUTHERN NEW ENGLAND
 IN CT

CITY           SKY/WX    TMP DP  RH WIND       PRES   REMARKS
BRADLEY INTL   LGT SNOW  15   7  70 N18G25    29.72R WCI  -2
HARTFORD       CLOUDY    15   9  76 NW10G23   29.74R HAZE    WCI   2
DANBURY        CLOUDY    15   3  59 N15G24    29.76R WCI   0
WTRBRY/OXFORD  MOCLDY    14   0  52 N25G36    29.69R WCI  -5
BRIDGEPORT     LGT SNOW  18   8  65 NW23G29   29.75R WCI   0
MERIDEN        CLOUDY    15   7  70 NW8       29.74R WCI   4
NEW HAVEN      CLOUDY    18   6  59 NW17G26   29.73R WCI   3
CHESTER        LGT SNOW  18  12  79 N18G28    29.68R WCI   2
GROTON         LGT SNOW  16  10  77 NW21G29   29.66S WCI  -1
WILLIMANTIC    LGT SNOW  14   7  73 NW15G23   29.69R WCI  -1

 IN RI

CITY           SKY/WX    TMP DP  RH WIND       PRES   REMARKS
PROVIDENCE     LGT SNOW  16   9  74 NW15      29.63R WCI   1
BLOCK ISLAND   CLOUDY    18   9  68 NW18G24   29.62R WCI   2
WESTERLY       MIX PCPN  16   8  71 NW14G25   29.66R WCI   2

 IN MA

CITY           SKY/WX    TMP DP  RH WIND       PRES   REMARKS
BOSTON         LGT SNOW  14   9  80 NW22G28   29.61R WCI  -4
WORCESTER      FLURRIES  10   3  73 NW21G30   29.58R WCI  -9
WESTFIELD      LGT SNOW  13   4  67 NW17G25   29.72R WCI  -4
PROVINCETOWN   NOT AVBL
NANTUCKET      HAZE      23  17  78 NW28G36   29.51R VSB 1   WCI   6
$$

ANZ330-335-338-340-345-350-353-355-280300-
COASTAL MARINE OBSERVATIONS


STATION/POSITION TIME  SKY/WX   TEMP    WIND        PRES    VSBY  WAVE
                                AIR SEA DIR/SP/G                  HT/PER
                 (UTC)          (F)     (DEG/KT/KT) (MB)    (MI)  (FT/S)
NY HARB ENTRANCE 0200            29 40  330/ 16/ 19 1007.3          5/11
4S FIRE IS       0200               38                N/A           5/12
20S FIRE ISLAND  0100               43              1006.1          8/ 6
23SW MTP         0200                                 N/A           7/13
HUDSON CANYON    NOT AVBL
EXECUTION ROCKS  0200            23 34  330/ 14/ 21   N/A
WESTERN LI SOUND 0200            22     330/ 12/ 16   N/A           1/ 2
CENTRAL LI SOUND 0100            20 35  340/ 23/ 29   N/A           4/ 4
EASTERN LI SOUND NOT AVBL
ROBBINS REEF     0200            23     340/ 17/ 22 1007.4
$$


>>>>>>>>>>>>>>>>>>>>>>>>>>>> KEY <<<<<<<<<<<<<<<<<<<<<<<<<<<
>                                                          <
>     SKY/WX - SKY CONDITION/PRESENT WEATHER               <
>     TMP    - TEMPERATURE IN FAHRENHEIT                   <
>     DP     - DEWPOINT IN FAHRENHEIT                      <
>     RH     - RELATIVE HUMIDITY IN PERCENT                <
>     WIND   - DIRECTION AND SPEED IN MPH                  <
>     PRES   - MEAN SEA LEVEL PRESSURE IN INCHES OF HG     <
>     WCI    - WIND CHILL INDEX                            <
>     VSB    - VISIBILITY IN MILES                         <
>     HX     - HEAT INDEX                                  <
>     TC     - TEMPERATURE IN CELSIUS                      <
>     VRB    - VARIABLE WIND DIRECTION                     <
>                                                          <
>>>>>>>>>>>>>>>>>>>>>>>>>>>> KEY <<<<<<<<<<<<<<<<<<<<<<<<<<<





USA.gov is the U.S. government's official web portal to all federal, state and local government web resources and services.